[[{"header":{"parameterUnit":"m.s-1","parameterCategory":1,"la1":30.2991,"la2":30.254,"lo1":-89.0895,"lo2":-89.0444,"dy":0.0017,"dx":0.0017,"nx":28,"ny":28,"refTime":"2025-05-01T09:00:00:Z","depth":0,"parameterNumber":2,"parameterNumberName":"U-component_of_WINDS"},"data":[0,0,0,0,0,0,0,0,0,0,0,0,0,0,0,0,0,0,0,0,0,0,0,0,0,0,0,0,0,0,0,0,0,0,0,0,0,0,0,0,0,0,0,0,0,0,0,0,0,0,0,0,0,0,0,0,0,0,-2.3567,-2.3567,0,-2.3518,-2.3517,-2.3517,-2.3463,-2.3462,-2.3461,-2.346,-2.341,-2.3409,-2.3408,0,0,0,0,0,0,0,0,0,0,0,0,0,-2.3617,-2.3616,-2.3567,-2.3567,-2.3566,-2.3518,-2.3517,-2.3516,-2.3463,-2.3462,-2.3461,-2.346,-2.341,-2.3409,-2.3408,0,0,0,0,0,0,0,0,0,0,0,0,0,-2.3584,-2.3616,-2.3567,-2.3533,-2.353,-2.3518,-2.3517,-2.3516,-2.3463,-2.3462,-2.3461,-2.346,-2.341,-2.3409,-2.3408,-2.3426,0,0,-2.3405,-2.3405,0,0,0,0,0,0,0,0,-2.3586,-2.3582,-2.3539,-2.3536,-2.3532,-2.3495,-2.3516,-2.3486,-2.3463,-2.3488,-2.346,-2.3459,-2.3439,-2.3436,-2.3429,-2.3423,-2.3421,-2.3405,-2.3405,-2.3404,-2.3404,0,0,0,0,0,0,0,-2.3588,-2.3584,-2.3548,-2.3539,-2.3534,-2.3521,-2.3515,-2.351,-2.3471,-2.3486,-2.3482,-2.3477,-2.3437,-2.343,-2.3427,-2.342,-2.3405,-2.3405,-2.3404,-2.3404,-2.3427,-2.3428,0,0,0,0,0,0,-2.3596,-2.3586,-2.3549,-2.3546,-2.3557,-2.3521,-2.3515,-2.3508,-2.3471,-2.3464,-2.3478,-2.3475,-2.3432,-2.3429,-2.3425,-2.3443,-2.3404,-2.3403,-2.3403,-2.3426,-2.3428,-2.3429,0,0,0,0,0,0,-2.3597,-2.3593,-2.3551,-2.3565,-2.3559,-2.3522,-2.3515,-2.3508,-2.3501,-2.3465,-2.3457,-2.3478,-2.3431,-2.3427,-2.3426,-2.3441,-2.3403,-2.3402,-2.3425,-2.3427,-2.3428,-2.348,0,0,0,0,0,0,-2.3598,-2.3594,-2.3599,-2.3566,-2.3558,-2.3553,-2.3516,-2.3508,-2.3499,-2.3494,-2.3463,-2.3456,-2.343,-2.3428,-2.3425,-2.3439,-2.3401,-2.3423,-2.3426,-2.3428,-2.3476,-2.3483,-2.3489,0,0,0,0,0,-2.36,-2.3616,-2.36,-2.3596,-2.3565,-2.3554,-2.3549,-2.3518,-2.3501,-2.3506,-2.3484,-2.3457,-2.344,-2.3428,-2.3425,-2.3438,-2.3422,-2.3425,-2.3428,-2.3474,-2.3482,-2.3488,0,0,0,0,0,0,-2.3652,-2.3611,-2.3593,-2.3597,-2.3579,-2.3545,-2.3551,-2.3528,-2.3514,-2.351,-2.3473,-2.3466,-2.347,-2.3454,-2.3442,-2.3454,-2.3427,-2.343,-2.3464,-2.3471,-2.3477,-2.348,-2.3401,0,0,0,0,0,-2.3664,-2.3658,-2.3622,-2.363,-2.3622,-2.3588,-2.3582,-2.356,-2.354,-2.3532,-2.3509,-2.349,-2.3481,-2.3475,-2.3464,-2.3474,-2.3467,-2.3482,-2.3488,-2.3493,-2.3495,-2.35,-2.3507,-2.3438,-2.3438,-2.3438,0,0,-2.3688,-2.3665,-2.3663,-2.364,-2.3623,-2.3618,-2.3582,-2.3578,-2.3574,-2.3531,-2.3529,-2.3512,-2.3489,-2.3494,-2.3495,-2.3481,-2.3513,-2.3497,-2.3501,-2.35,-2.3504,-2.351,-2.3516,-2.344,-2.3439,-2.3439,0,0,-2.373,-2.3712,-2.3716,-2.3701,-2.3676,-2.3654,-2.3656,-2.3624,-2.3611,-2.3609,-2.3577,-2.3572,-2.3556,-2.3541,-2.3532,-2.357,-2.3545,-2.3567,-2.3599,-2.3604,-2.3609,-2.3614,-2.3627,-2.3633,-2.357,-2.357,-2.357,0,-2.3763,-2.3754,-2.3722,-2.372,-2.3711,-2.3672,-2.3677,-2.3664,-2.3637,-2.3632,-2.3616,-2.3596,-2.3578,-2.3579,-2.3589,-2.3583,-2.3583,-2.357,-2.3611,-2.3615,-2.3619,-2.3632,-2.3637,-2.3573,-2.3572,-2.3572,-2.3572,0,-2.3797,-2.3791,-2.3798,-2.3773,-2.3765,-2.3766,-2.3735,-2.373,-2.3709,-2.3689,-2.3688,-2.3665,-2.3649,-2.3648,-2.3627,-2.3647,-2.3639,-2.3618,-2.359,-2.3629,-2.364,-2.3645,-2.3577,-2.3576,-2.3575,-2.3574,0,0,-2.3868,-2.3826,-2.3829,-2.3818,-2.3789,-2.3784,-2.3785,-2.3769,-2.3766,-2.375,-2.3749,-2.3738,-2.3719,-2.3708,-2.3686,-2.369,-2.3722,-2.3669,-2.3668,-2.3679,-2.3742,-2.3758,-2.3764,-2.3706,-2.3707,-2.3708,-2.3744,0,-2.3904,-2.3902,-2.3873,-2.3879,-2.3874,-2.3838,-2.3839,-2.3821,-2.3803,-2.3796,-2.3775,-2.3768,-2.3743,-2.3736,-2.3739,-2.3718,-2.3734,-2.3715,-2.3706,-2.3706,-2.3712,-2.377,-2.3786,-2.3821,-2.3748,-2.3749,-2.375,0,-2.3946,-2.3932,-2.3938,-2.3909,-2.3906,-2.3907,-2.3891,-2.3885,-2.3865,-2.3851,-2.384,-2.3815,-2.3814,-2.3789,-2.3788,-2.3775,-2.377,-2.3759,-2.3759,-2.3757,-2.3729,-2.3768,-2.3831,-2.3837,-2.3756,-2.3756,-2.3755,0,-2.3997,-2.398,-2.3982,-2.3973,-2.394,-2.3942,-2.3928,-2.3907,-2.39,-2.3886,-2.3881,-2.3868,-2.3861,-2.3851,-2.3824,-2.3808,-2.3825,-2.3798,-2.3814,-2.3815,-2.3818,-2.3818,-2.3881,-2.3816,-2.3816,-2.3816,-2.3816,0,-2.4041,-2.4045,-2.4004,-2.4005,-2.401,-2.3977,-2.3983,-2.3966,-2.3948,-2.3945,-2.3914,-2.3912,-2.3876,-2.387,-2.3849,-2.3851,-2.3848,-2.3837,-2.3831,-2.3839,-2.384,-2.3834,-2.3831,-2.3817,-2.3817,-2.3817,-2.3817,0,-2.4098,-2.4071,-2.407,-2.4039,-2.4032,-2.4036,-2.401,-2.401,-2.399,-2.3987,-2.3984,-2.3953,-2.3945,-2.3917,-2.3902,-2.3887,-2.3896,-2.3885,-2.3903,-2.3899,-2.3916,-2.3915,-2.3977,-2.3983,-2.3915,-2.3916,-2.3916,0,-2.4127,-2.413,-2.41,-2.4096,-2.4084,-2.4077,-2.407,-2.4039,-2.4033,-2.4011,-2.4014,-2.4003,-2.3993,-2.3981,-2.3958,-2.3946,-2.3934,-2.3957,-2.3932,-2.3941,-2.3934,-2.3934,-2.3935,-2.3962,-2.3963,-2.3964,-2.3964,0,-2.4182,-2.4169,-2.4159,-2.4146,-2.4138,-2.4126,-2.4112,-2.411,-2.4076,-2.4071,-2.4062,-2.4054,-2.4039,-2.4029,-2.4014,-2.4,-2.3977,-2.3973,-2.3975,-2.3984,-2.3994,-2.3988,-2.3917,-2.3971,-2.397,-2.397,-2.3969,-2.3969,-2.4226,-2.4227,-2.4206,-2.4197,-2.4183,-2.4171,-2.417,-2.415,-2.4142,-2.4127,-2.411,-2.4103,-2.4084,-2.4061,-2.405,-2.4045,-2.4032,-2.4036,-2.4037,-2.4039,-2.4043,-2.3995,-2.4042,-2.4042,-2.4041,-2.4041,-2.4041,0,-2.4279,-2.4264,-2.4256,-2.4238,-2.4231,-2.421,-2.4193,-2.4189,-2.4184,-2.4168,-2.4159,-2.4149,-2.414,-2.4116,-2.4104,-2.4105,-2.4094,-2.4103,-2.4102,-2.4099,-2.4055,-2.4053,-2.4112,-2.4112,-2.4112,-2.4112,-2.4112,-2.4112,-2.4306,-2.4306,-2.4291,-2.4285,-2.427,-2.4263,-2.4256,-2.4245,-2.4232,-2.4223,-2.4215,-2.4199,-2.418,-2.4167,-2.4158,-2.4151,-2.4148,-2.4161,-2.415,-2.4109,-2.4102,-2.4096,-2.4094,-2.416,-2.416,-2.4195,-2.4195,-2.4196]},{"header":{"parameterUnit":"m.s-1","parameterCategory":1,"la1":30.2991,"la2":30.254,"lo1":-89.0895,"lo2":-89.0444,"dy":0.0017,"dx":0.0017,"nx":28,"ny":28,"refTime":"2025-05-01T09:00:00:Z","depth":0,"parameterNumber":3,"parameterNumberName":"V-component_of_WINDS"},"data":[0,0,0,0,0,0,0,0,0,0,0,0,0,0,0,0,0,0,0,0,0,0,0,0,0,0,0,0,0,0,0,0,0,0,0,0,0,0,0,0,0,0,0,0,0,0,0,0,0,0,0,0,0,0,0,0,0,0,5.1442,5.1442,0,5.146,5.146,5.146,5.1459,5.1459,5.1459,5.1459,5.1475,5.1476,5.1477,0,0,0,0,0,0,0,0,0,0,0,0,0,5.1406,5.1406,5.1442,5.1442,5.1442,5.146,5.146,5.146,5.146,5.1459,5.1459,5.1459,5.1475,5.1476,5.1477,0,0,0,0,0,0,0,0,0,0,0,0,0,5.1422,5.1406,5.1442,5.1444,5.1444,5.146,5.146,5.146,5.146,5.1459,5.1459,5.1459,5.1475,5.1476,5.1477,5.149,0,0,5.148,5.148,0,0,0,0,0,0,0,0,5.1421,5.1423,5.1443,5.1444,5.1444,5.1457,5.1453,5.147,5.146,5.1454,5.1459,5.1458,5.1469,5.1471,5.1475,5.1491,5.1492,5.148,5.1481,5.1481,5.1481,0,0,0,0,0,0,0,5.142,5.1423,5.1449,5.1444,5.1444,5.1444,5.1446,5.1456,5.1463,5.1454,5.1454,5.1456,5.147,5.1474,5.1475,5.1492,5.148,5.1481,5.1481,5.1482,5.1521,5.1522,0,0,0,0,0,0,5.1419,5.1422,5.1448,5.1449,5.1432,5.1445,5.1447,5.1453,5.1463,5.1464,5.1457,5.1456,5.1472,5.1474,5.1476,5.1493,5.1481,5.1482,5.1482,5.1521,5.1521,5.1522,0,0,0,0,0,0,5.1418,5.1421,5.1447,5.1436,5.1439,5.1446,5.1453,5.1454,5.1458,5.1465,5.1466,5.146,5.1472,5.1474,5.1487,5.1494,5.1482,5.1483,5.152,5.1521,5.1522,5.1527,0,0,0,0,0,0,5.1417,5.1421,5.1426,5.1436,5.144,5.1459,5.1453,5.1454,5.146,5.146,5.1469,5.147,5.1472,5.1486,5.1488,5.1495,5.1484,5.152,5.1521,5.1521,5.1526,5.1528,5.1529,0,0,0,0,0,5.1415,5.1426,5.1426,5.1429,5.1446,5.1459,5.1461,5.1464,5.1461,5.1466,5.1471,5.1469,5.1493,5.1487,5.149,5.1497,5.1519,5.152,5.1521,5.1526,5.1527,5.1529,0,0,0,0,0,0,5.1416,5.1427,5.1428,5.1442,5.145,5.1459,5.1465,5.1466,5.1474,5.1473,5.1476,5.1478,5.1491,5.1495,5.1489,5.1511,5.1505,5.1507,5.1508,5.151,5.1511,5.1509,5.1485,0,0,0,0,0,5.1418,5.1427,5.1437,5.1448,5.1452,5.1458,5.1464,5.1466,5.1474,5.1477,5.1482,5.149,5.1499,5.1504,5.1513,5.1527,5.1529,5.1533,5.1535,5.1536,5.1537,5.1546,5.1548,5.1525,5.1525,5.1525,0,0,5.1421,5.1429,5.1434,5.1449,5.1455,5.1465,5.1461,5.1471,5.1478,5.1478,5.1491,5.1495,5.1503,5.1517,5.1523,5.1521,5.1544,5.1537,5.1538,5.1539,5.1547,5.1549,5.1551,5.1526,5.1526,5.1526,0,0,5.1433,5.1439,5.145,5.1457,5.1467,5.1471,5.1474,5.1484,5.1487,5.15,5.15,5.1509,5.1524,5.153,5.1535,5.1551,5.155,5.1554,5.1561,5.1569,5.1571,5.1573,5.1578,5.158,5.1555,5.1555,5.1555,0,5.1436,5.1451,5.1455,5.1466,5.1473,5.1474,5.1485,5.1491,5.1503,5.1508,5.1505,5.1525,5.153,5.1546,5.155,5.1554,5.1557,5.1553,5.157,5.1572,5.1574,5.1579,5.1581,5.1556,5.1556,5.1556,5.1555,0,5.1454,5.1465,5.1473,5.1486,5.1493,5.1504,5.151,5.1516,5.1518,5.1523,5.1536,5.1543,5.1554,5.1558,5.1559,5.1574,5.1572,5.157,5.1564,5.1576,5.1581,5.1584,5.1556,5.1556,5.1556,5.1556,0,0,5.1465,5.1482,5.1485,5.1491,5.1503,5.1511,5.1522,5.1534,5.154,5.1548,5.1558,5.1571,5.157,5.1576,5.1578,5.1585,5.1598,5.1582,5.1582,5.1585,5.1615,5.1616,5.1619,5.1598,5.1598,5.1598,5.1614,0,5.1478,5.1499,5.1504,5.1521,5.1532,5.1534,5.1544,5.1552,5.1557,5.1566,5.1571,5.1581,5.1578,5.1582,5.1589,5.1595,5.1604,5.1594,5.1606,5.1607,5.1604,5.1622,5.1623,5.1638,5.1616,5.1617,5.1617,0,5.1496,5.1506,5.1525,5.1537,5.1542,5.155,5.1562,5.1571,5.158,5.1583,5.1591,5.1593,5.1604,5.1599,5.1615,5.1608,5.1613,5.1617,5.1618,5.1619,5.1612,5.1623,5.1642,5.1645,5.162,5.162,5.162,0,5.1502,5.1521,5.1535,5.154,5.1554,5.1561,5.1567,5.1576,5.1583,5.1593,5.1597,5.1608,5.1614,5.1622,5.1627,5.1622,5.1643,5.1637,5.1645,5.1645,5.1649,5.1649,5.1669,5.1653,5.1653,5.1653,5.1653,0,5.1516,5.1528,5.1538,5.1547,5.156,5.1566,5.1579,5.1585,5.1593,5.1603,5.1605,5.1614,5.162,5.163,5.1633,5.1646,5.1649,5.1651,5.1652,5.1651,5.1651,5.1655,5.1654,5.1653,5.1653,5.1653,5.1653,0,5.1525,5.1533,5.1549,5.1561,5.1565,5.1574,5.1585,5.1593,5.1599,5.1611,5.1614,5.1622,5.1634,5.164,5.1654,5.1656,5.1671,5.1671,5.1668,5.1668,5.1676,5.1675,5.17,5.1703,5.1684,5.1685,5.1685,0,5.1534,5.1543,5.1557,5.1564,5.1571,5.1582,5.159,5.1596,5.1604,5.1616,5.1623,5.1635,5.1645,5.1664,5.1671,5.1682,5.1682,5.169,5.1683,5.1683,5.1682,5.1682,5.1683,5.1691,5.1691,5.1691,5.1691,0,5.1548,5.1551,5.1563,5.1576,5.1585,5.1595,5.1605,5.1611,5.1619,5.1627,5.164,5.1648,5.1663,5.1675,5.1686,5.1692,5.1693,5.1693,5.1696,5.1695,5.1693,5.1694,5.1671,5.1693,5.1692,5.1692,5.1692,5.1692,5.1557,5.1565,5.1577,5.159,5.1599,5.1608,5.1617,5.1625,5.1635,5.1649,5.1652,5.1665,5.1676,5.1692,5.1698,5.1708,5.1706,5.171,5.1711,5.1711,5.1712,5.1691,5.171,5.171,5.171,5.171,5.171,0,5.1571,5.1579,5.1591,5.1606,5.1616,5.1617,5.1629,5.1637,5.1649,5.1659,5.1669,5.1684,5.1696,5.1704,5.1716,5.1723,5.1724,5.1726,5.1725,5.1727,5.1713,5.171,5.1725,5.1725,5.1725,5.1725,5.1725,5.1725,5.158,5.1595,5.16,5.162,5.1628,5.1642,5.1648,5.1657,5.1665,5.1682,5.1693,5.1698,5.1708,5.1721,5.1732,5.1734,5.1738,5.174,5.1743,5.1729,5.1728,5.1726,5.1723,5.1741,5.1741,5.1756,5.1756,5.1756]}]]